• In Uzbekistan
  • List of Countries
  • For 7 days
  • Water Temperature
  • Satellite Maps
  • Weather Map
  • Weather Widgets
  • user-avatar
    Login

    Hourly Weather Polevoy

    Today, 18 September, Tuesday

    Time Temperature Precipitation Wind Pressure Humidity
    00:00 +8°C° 0 mm 4 mps 744 mmHg 73%
    01:00 +9°C° 0 mm 3 mps 744 mmHg 75%
    02:00 +8°C° 0 mm 3 mps 744 mmHg 76%
    03:00 +8°C° 0 mm 3 mps 744 mmHg 79%
    04:00 +8°C° 0 mm 3 mps 744 mmHg 80%
    05:00 +7°C° 0 mm 3 mps 744 mmHg 81%
    06:00 +7°C° 0 mm 2 mps 744 mmHg 82%
    07:00 +9°C° 0 mm 3 mps 744 mmHg 77%
    08:00 +11°C° 0 mm 3 mps 744 mmHg 71%
    09:00 +13°C° 0 mm 3 mps 744 mmHg 64%
    10:00 +14°C° 0 mm 4 mps 743 mmHg 61%
    11:00 +15°C° 0 mm 5 mps 743 mmHg 58%
    12:00 +17°C° 0 mm 6 mps 743 mmHg 55%
    13:00 +17°C° 0.1 mm 6 mps 742 mmHg 57%
    14:00 +17°C° 0.1 mm 6 mps 742 mmHg 59%
    15:00 +17°C° 0 mm 5 mps 742 mmHg 62%
    16:00 +16°C° 0.1 mm 5 mps 741 mmHg 67%
    17:00 +15°C° 0.1 mm 4 mps 741 mmHg 72%
    18:00 +15°C° 0.1 mm 4 mps 741 mmHg 77%
    19:00 +14°C° 0 mm 4 mps 741 mmHg 80%
    20:00 +13°C° 0 mm 4 mps 741 mmHg 83%
    21:00 +12°C° 0 mm 4 mps 742 mmHg 86%
    22:00 +12°C° 0 mm 4 mps 742 mmHg 86%
    23:00 +11°C° 0 mm 4 mps 742 mmHg 85%

    Tomorrow, 19 September, Wednesday

    Time Temperature Precipitation Wind Pressure Humidity
    00:00 +11°C° 0 mm 4 mps 742 mmHg 84%
    01:00 +10°C° 0 mm 4 mps 743 mmHg 85%
    02:00 +10°C° 0 mm 4 mps 743 mmHg 86%
    03:00 +8°C° 0 mm 4 mps 743 mmHg 86%
    04:00 +8°C° 0 mm 4 mps 743 mmHg 87%
    05:00 +7°C° 0 mm 4 mps 744 mmHg 87%
    06:00 +7°C° 0 mm 4 mps 744 mmHg 87%
    07:00 +8°C° 0 mm 4 mps 744 mmHg 81%
    08:00 +10°C° 0 mm 5 mps 744 mmHg 74%
    09:00 +12°C° 0 mm 5 mps 745 mmHg 67%
    10:00 +13°C° 0 mm 6 mps 745 mmHg 61%
    11:00 +15°C° 0 mm 6 mps 744 mmHg 56%
    12:00 +16°C° 0 mm 6 mps 744 mmHg 50%
    13:00 +16°C° 0 mm 6 mps 744 mmHg 53%
    14:00 +16°C° 0 mm 5 mps 744 mmHg 55%
    15:00 +17°C° 0 mm 4 mps 744 mmHg 58%
    16:00 +15°C° 0 mm 4 mps 744 mmHg 63%
    17:00 +16°C° 0 mm 3 mps 744 mmHg 67%
    18:00 +16°C° 0 mm 2 mps 744 mmHg 72%
    19:00 +14°C° 0 mm 3 mps 744 mmHg 75%
    20:00 +14°C° 0 mm 3 mps 744 mmHg 79%
    21:00 +14°C° 0 mm 4 mps 744 mmHg 82%
    22:00 +14°C° 0 mm 4 mps 744 mmHg 85%
    23:00 +14°C° 0 mm 4 mps 743 mmHg 88%

    Day after tomorrow, 20 September, Thursday

    Time Temperature Precipitation Wind Pressure Humidity
    00:00 +13°C° 0 mm 3 mps 743 mmHg 91%
    01:00 +13°C° 0 mm 3 mps 743 mmHg 93%
    02:00 +13°C° 0 mm 3 mps 744 mmHg 94%
    03:00 +12°C° 0 mm 3 mps 744 mmHg 95%
    04:00 +12°C° 0 mm 3 mps 744 mmHg 95%
    05:00 +12°C° 0 mm 3 mps 744 mmHg 95%
    06:00 +12°C° 0 mm 3 mps 743 mmHg 96%
    07:00 +13°C° 0 mm 3 mps 744 mmHg 90%
    08:00 +16°C° 0 mm 3 mps 744 mmHg 85%
    09:00 +17°C° 0 mm 4 mps 744 mmHg 79%
    10:00 +19°C° 0 mm 4 mps 744 mmHg 73%
    11:00 +21°C° 0 mm 5 mps 744 mmHg 67%
    12:00 +23°C° 0 mm 5 mps 743 mmHg 61%
    13:00 +23°C° 0 mm 5 mps 743 mmHg 60%
    14:00 +23°C° 0 mm 5 mps 743 mmHg 60%
    15:00 +24°C° 0 mm 6 mps 743 mmHg 59%
    16:00 +23°C° 0 mm 5 mps 743 mmHg 64%
    17:00 +21°C° 0 mm 4 mps 743 mmHg 69%
    18:00 +20°C° 0 mm 3 mps 743 mmHg 74%
    19:00 +19°C° 0 mm 3 mps 743 mmHg 78%
    20:00 +19°C° 0 mm 3 mps 744 mmHg 82%
    21:00 +18°C° 0 mm 3 mps 744 mmHg 86%
    22:00 +17°C° 0 mm 3 mps 744 mmHg 89%
    23:00 +16°C° 0 mm 3 mps 744 mmHg 91%

    21 September, Friday

    Time Temperature Precipitation Wind Pressure Humidity
    00:00 +14°C° 0 mm 3 mps 744 mmHg 93%
    01:00 +14°C° 0 mm 3 mps 744 mmHg 94%
    02:00 +13°C° 0 mm 3 mps 745 mmHg 94%
    03:00 +13°C° 0 mm 2 mps 745 mmHg 95%
    04:00 +13°C° 0 mm 2 mps 745 mmHg 95%
    05:00 +12°C° 0 mm 2 mps 746 mmHg 95%
    06:00 +12°C° 0 mm 2 mps 746 mmHg 96%
    07:00 +14°C° 0 mm 2 mps 746 mmHg 89%
    08:00 +14°C° 0 mm 3 mps 747 mmHg 83%
    09:00 +17°C° 0 mm 3 mps 747 mmHg 76%
    10:00 +18°C° 0 mm 3 mps 747 mmHg 70%
    11:00 +19°C° 0 mm 3 mps 747 mmHg 64%
    12:00 +21°C° 0 mm 3 mps 747 mmHg 58%
    13:00 +21°C° 0 mm 3 mps 747 mmHg 56%
    14:00 +22°C° 0 mm 3 mps 747 mmHg 54%
    15:00 +24°C° 0 mm 3 mps 747 mmHg 53%
    16:00 +21°C° 0 mm 2 mps 747 mmHg 58%
    17:00 +20°C° 0 mm 2 mps 748 mmHg 63%
    18:00 +20°C° 0 mm 1 mps 748 mmHg 68%
    19:00 +19°C° 0 mm 1 mps 748 mmHg 71%
    20:00 +18°C° 0 mm 1 mps 748 mmHg 75%
    21:00 +16°C° 0 mm 0 mps 748 mmHg 78%
    22:00 +15°C° 0 mm 0 mps 748 mmHg 80%
    23:00 +15°C° 0 mm 0 mps 748 mmHg 81%

    22 September, Saturday

    Time Temperature Precipitation Wind Pressure Humidity
    00:00 +15°C° 0 mm 0 mps 749 mmHg 83%
    01:00 +14°C° 0 mm 0 mps 749 mmHg 84%
    02:00 +15°C° 0 mm 1 mps 749 mmHg 85%
    03:00 +15°C° 0 mm 1 mps 749 mmHg 87%
    04:00 +14°C° 0 mm 1 mps 749 mmHg 87%
    05:00 +14°C° 0 mm 1 mps 749 mmHg 88%
    06:00 +14°C° 0 mm 1 mps 749 mmHg 89%
    07:00 +15°C° 0 mm 1 mps 749 mmHg 83%
    08:00 +18°C° 0 mm 1 mps 749 mmHg 76%
    09:00 +19°C° 0 mm 2 mps 749 mmHg 70%
    10:00 +20°C° 0 mm 2 mps 749 mmHg 65%
    11:00 +21°C° 0 mm 2 mps 749 mmHg 59%
    12:00 +23°C° 0 mm 2 mps 749 mmHg 54%
    13:00 +24°C° 0 mm 3 mps 749 mmHg 52%
    14:00 +24°C° 0 mm 3 mps 748 mmHg 50%
    15:00 +25°C° 0 mm 3 mps 748 mmHg 48%
    16:00 +22°C° 0 mm 3 mps 748 mmHg 53%
    17:00 +21°C° 0 mm 2 mps 748 mmHg 58%
    18:00 +20°C° 0 mm 2 mps 747 mmHg 63%
    19:00 +19°C° 0 mm 2 mps 747 mmHg 65%
    20:00 +18°C° 0 mm 3 mps 747 mmHg 67%
    21:00 +17°C° 0 mm 3 mps 747 mmHg 69%
    22:00 +17°C° 0 mm 3 mps 747 mmHg 70%
    23:00 +16°C° 0 mm 3 mps 747 mmHg 72%

    23 September, Sunday

    Time Temperature Precipitation Wind Pressure Humidity
    00:00 +16°C° 0 mm 3 mps 746 mmHg 73%
    01:00 +16°C° 0 mm 3 mps 746 mmHg 74%
    02:00 +14°C° 0 mm 3 mps 746 mmHg 74%
    03:00 +14°C° 0 mm 4 mps 746 mmHg 75%
    04:00 +14°C° 0 mm 4 mps 746 mmHg 76%
    05:00 +13°C° 0 mm 4 mps 746 mmHg 77%
    06:00 +13°C° 0 mm 4 mps 746 mmHg 78%
    07:00 +15°C° 0 mm 4 mps 745 mmHg 72%
    08:00 +16°C° 0 mm 5 mps 745 mmHg 67%
    09:00 +17°C° 0 mm 5 mps 745 mmHg 61%
    10:00 +20°C° 0 mm 5 mps 745 mmHg 56%
    11:00 +21°C° 0 mm 6 mps 744 mmHg 51%
    12:00 +23°C° 0 mm 6 mps 744 mmHg 46%
    13:00 +23°C° 0 mm 6 mps 744 mmHg 45%
    14:00 +23°C° 0 mm 6 mps 743 mmHg 44%
    15:00 +24°C° 0 mm 6 mps 743 mmHg 43%
    16:00 +22°C° 0 mm 5 mps 743 mmHg 49%
    17:00 +21°C° 0 mm 4 mps 743 mmHg 55%
    18:00 +20°C° 0 mm 3 mps 742 mmHg 60%
    19:00 +19°C° 0 mm 4 mps 742 mmHg 61%
    20:00 +19°C° 0 mm 4 mps 742 mmHg 62%
    21:00 +17°C° 0 mm 5 mps 741 mmHg 63%
    22:00 +17°C° 0 mm 5 mps 741 mmHg 59%
    23:00 +17°C° 0 mm 5 mps 741 mmHg 55%
    Show more